Location: Golders Green
(51.5667°N, 0.2167°W)
Time: 18:59:31
(UTC+00:00)

Daily predictions for brighter satellites

Satellite Brightness Start Highest point End
(mag) Time Altitude Azimuth Time Altitude Azimuth Time Altitude Azimuth
Cosmos 1000 Rocket 4.5 21:05:24 10° S 21:11:30 76° E 21:17:40 10° NNE
Cosmos 1340 3.2 21:08:42 10° SSE 21:12:14 39° E 21:15:47 10° NNE
USA 267 4.0 21:06:42 10° E 21:13:05 57° N 21:19:28 10° WNW
Cosmos 2278 Rocket 3.1 21:09:20 10° NNW 21:14:43 41° NE 21:20:04 10° ESE
Cosmos 2322 4.0 21:09:59 10° S 21:15:20 45° ESE 21:20:43 10° NE
Cosmos 1844 Rocket 3.4 21:10:20 10° NW 21:15:48 50° WSW 21:21:15 10° S
COSMOS 2428 3.4 21:12:02 10° S 21:17:09 34° ESE 21:22:16 10° NE
Cosmos 389 Rocket 4.0 21:18:22 10° NNE 21:21:12 23° ENE 21:24:00 10° ESE
Cosmos 1867 3.8 21:17:39 10° NW 21:23:11 75° NE 21:28:40 10° SE
SL-23 DEB 4.3 21:23:03 10° W 21:26:48 88° SSW 21:33:03 10° E
Cosmos 968 Rocket 3.6 21:23:16 10° NNW 21:28:24 71° ENE 21:33:29 10° SSE
Cosmos 1908 4.4 21:27:00 10° NNW 21:30:40 40° W 21:34:16 10° SSW
JB-3 4.4 21:26:53 10° NNE 21:30:52 89° E 21:34:56 10° SSW
Cosmos 1486 Rocket 4.3 21:28:41 10° NNW 21:33:53 62° ENE 21:38:52 11° SE
Cosmos 1544 Rocket 4.1 21:29:39 10° NNW 21:34:04 59° W 21:38:25 10° S
SJ 16-02 3.9 21:33:29 10° NNE 21:34:50 11° NE 21:36:11 10° ENE
Cosmos 1626 2.3 21:31:28 10° SSW 21:35:09 75° W 21:38:53 10° N
Cosmos 1110 Rocket 4.2 21:30:01 10° SSW 21:35:12 75° WNW 21:40:28 10° NNE
Cosmos 2061 Rocket 4.2 21:29:19 10° N 21:35:49 87° W 21:42:13 10° S
FALCON 9 DEB 3.1 21:33:05 10° WSW 21:36:32 86° SSE 21:39:57 10° ENE
Meteor 2-10 Rocket 3.9 21:33:01 10° N 21:38:00 51° ENE 21:42:36 11° SSE
Cosmos 2123 Rocket 4.1 21:31:44 10° S 21:38:01 76° E 21:44:22 10° NNE
Cosmos 2233 Rocket 4.1 21:33:27 10° N 21:39:36 66° ENE 21:45:35 11° SSE
Cosmos 1943 Rocket 4.2 21:35:46 10° NNW 21:39:51 20° NE 21:43:54 10° E
ARIANE 5 R/B 3.3 21:39:17 10° S 21:43:39 53° W 21:48:06 10° NNW
Cosmos 405 3.6 21:46:46 10° NNW 21:50:08 50° W 21:53:28 10° S
Cosmos 1346 Rocket 3.6 21:47:04 13° SSE 21:50:16 35° E 21:53:58 10° NNE
ATLAS CENTAUR R/B 2.7 21:46:37 10° WNW 21:50:30 32° WSW 21:54:30 10° S
Cosmos 2333 4.3 21:48:45 10° SSW 21:54:31 86° WNW 22:00:16 10° NNE
ATLAS 3B R/B 2.6 21:50:36 10° SSW 21:57:10 76° SE 22:03:58 10° NE
SL-4 R/B 3.1 21:55:52 10° SSW 21:59:05 22° SE 22:02:08 10° E
FALCON 9 DEB 3.0 21:57:50 10° SW 22:00:52 49° SSE 22:03:55 10° ENE
Cosmos 2219 Rocket 2.2 22:01:21 10° SSW 22:07:02 87° ESE 22:12:46 10° NNE
Cosmos 1607 4.1 22:00:37 10° NW 22:07:07 83° NE 22:12:53 13° SE
Cosmos 1025 Rocket 4.4 22:03:36 10° SW 22:07:43 39° WNW 22:11:51 10° N
Meteor 2-5 Rocket 3.7 22:02:11 10° SSW 22:07:46 88° WNW 22:13:27 10° NNE
Lacrosse 5 rocket 1.3 22:04:40 10° WSW 22:08:18 69° NNW 22:11:53 10° ENE
Cosmos 2333 Rocket 2.4 22:02:56 10° SSW 22:08:42 82° WNW 22:14:28 10° NNE
ERS-1 Rocket 3.8 22:04:29 10° S 22:09:18 45° W 22:14:10 10° NNW
Cosmos 2228 3.0 22:06:06 10° N 22:10:33 84° E 22:14:06 16° SSE
Cosmos 1536 Rocket 4.0 22:06:23 10° SSW 22:10:48 64° WNW 22:15:14 10° N
Iridium 2 4.4 22:12:19 17° SSE 22:14:46 37° E 22:18:16 10° NNE
FALCON 9 DEB 2.7 22:13:17 10° WSW 22:16:23 73° SSE 22:19:28 10° ENE
USA 215 4.0 22:14:17 10° ENE 22:19:52 29° SE 22:25:23 10° S
FALCON 9 DEB 2.7 22:21:19 10° WSW 22:24:26 69° SSE 22:27:32 10° ENE
Terra 2.7 22:20:12 11° S 22:24:34 44° W 22:29:08 10° NNW
SL-16 R/B 3.8 22:23:55 13° SE 22:26:39 18° E 22:30:16 10° ENE
FALCON 9 DEB 2.7 22:23:50 10° WSW 22:26:57 79° SSE 22:30:04 10° ENE
Cosmos 1455 2.3 22:23:39 10° N 22:27:29 64° ENE 22:29:59 20° SSE
Cosmos 2237 Rocket 2.6 22:23:45 14° S 22:28:15 45° ESE 22:33:34 10° NE
Cosmos 1464 Rocket 4.3 22:23:04 10° N 22:29:23 61° ENE 22:34:26 17° SSE
Cosmos 1184 Rocket 3.7 22:29:49 21° SE 22:31:20 32° E 22:34:17 10° NNE
Cosmos 2360 Rocket 4.0 22:26:48 10° WSW 22:31:55 34° NW 22:37:03 10° NNE
H-2A R/B 3.7 22:28:10 10° N 22:32:15 69° WNW 22:36:19 10° SSW
SPOT 5 4.4 22:28:11 10° SSW 22:32:34 29° W 22:36:48 10° NW
Cosmos 1503 Rocket 4.1 22:28:32 10° NNW 22:33:56 78° WSW 22:37:58 18° SSE
Cosmos 2369 Rocket 4.1 22:29:24 10° NNW 22:34:09 26° NE 22:38:51 10° E
Meteor 1-24 Rocket 4.1 22:34:15 10° SSW 22:39:34 63° WNW 22:45:07 10° N
GEOS 3 Rocket 3.7 22:38:08 14° SE 22:42:48 88° NE 22:48:10 10° NW
ATLAS CENTAUR R/B 4.0 22:40:46 17° S 22:44:27 37° ESE 22:55:10 10° NE
Cosmos 389 Rocket 4.0 22:52:51 10° NNW 22:55:50 28° W 22:58:04 15° SSW
USA 267 3.3 22:49:18 10° ESE 22:55:51 83° NNE 23:02:27 10° WNW
Okean 1-7 Rocket 3.9 22:54:15 21° SSE 22:56:58 53° E 23:01:18 10° NNE
BREEZE-M DEB (TANK) 2.6 22:55:43 10° WSW 22:58:50 67° SSE 23:07:12 10° E
Cosmos 2278 Rocket 2.9 22:53:31 10° NW 22:58:53 44° WSW 23:02:45 18° S
GENESIS II 4.1 22:55:06 10° SW 22:59:00 84° SE 23:02:55 10° NE
Cosmos 1726 Rocket 4.2 22:56:35 10° NNW 23:00:54 49° W 23:03:59 18° SSW
COSMOS 2428 3.5 22:55:38 10° SW 23:01:14 52° NW 23:06:53 10° NNE
Cosmos 2297 4.0 22:55:53 10° NNW 23:01:31 63° NE 23:06:11 15° SE
Cosmos 2058 Rocket 3.1 22:57:08 10° NNW 23:01:35 76° W 23:04:24 22° S
Cosmos 2034 Rocket 4.0 22:59:21 10° N 23:05:34 76° E 23:10:01 20° SSE
NOSS 0 Rocket 4.0 23:02:58 10° SW 23:09:11 83° WNW 23:15:29 10° NNE
FALCON 9 DEB 3.4 23:10:07 10° W 23:13:32 67° N 23:16:56 10° E
SJ 16-02 1.8 23:10:08 10° NNW 23:14:27 55° ENE 23:17:27 19° SE
Meteor 1-21 Rocket 4.2 23:14:30 19° S 23:18:41 86° E 23:24:29 10° NNE
Cosmos 1777 Rocket 4.0 23:14:11 10° NNW 23:19:29 76° WSW 23:22:56 22° SSE
Spot 4 4.2 23:20:17 21° S 23:23:19 54° W 23:28:01 10° NNW
GP-B 4.0 23:19:16 10° NNE 23:23:27 39° E 23:26:01 20° SE
Cosmos 1943 Rocket 2.3 23:19:03 10° NNW 23:24:35 72° ENE 23:28:53 17° SE
Cosmos 1892 Rocket 4.2 23:21:07 15° SSW 23:24:35 51° WNW 23:28:58 10° N
Meteor 1-4 Rocket 2.3 23:21:32 10° NNW 23:25:02 89° WSW 23:26:36 30° S
MTI 4.3 23:28:37 10° NNE 23:31:32 41° E 23:32:27 31° SE
Cosmos 1441 Rocket 3.3 23:29:44 23° SSW 23:32:02 70° WNW 23:35:51 10° N
FALCON 9 DEB 3.2 23:33:25 10° W 23:36:33 68° N 23:39:41 10° ENE
ALOS 2 2.8 23:35:17 25° S 23:37:46 63° WSW 23:42:09 10° NNW
SL-4 R/B 1.7 23:34:17 10° WSW 23:38:16 65° SSE 23:41:56 10° E
Tsikada Rocket 4.0 23:34:13 21° S 23:38:27 72° E 23:44:36 10° NNE
Lacrosse 4 Rocket 4.1 23:35:36 10° NNW 23:38:29 18° NNE 23:41:19 10° ENE
Cosmos 1980 4.2 23:33:40 10° SW 23:39:17 61° NW 23:44:57 10° NNE
USA 229 DEB 4.4 23:38:46 21° SSE 23:42:09 33° ESE 23:48:05 10° NE
USA 229 4.4 23:38:53 20° SSE 23:42:15 33° ESE 23:48:11 10° NE
Cosmos 1703 4.0 23:44:02 19° SW 23:46:34 48° WNW 23:50:25 10° N
Lacrosse 5 rocket 2.8 23:44:28 10° WNW 23:47:47 34° N 23:51:07 10° ENE
ATLAS 3B R/B 4.0 23:42:08 10° W 23:48:24 42° NNW 23:54:56 10° NE
NOSS 3-1 (C) 3.6 23:46:44 22° S 23:50:02 49° ESE 23:56:06 10° NE
Cosmos 2219 Rocket 4.3 23:47:05 10° W 23:51:45 25° NW 23:56:25 10° NNE
FALCON 9 DEB 3.3 23:48:58 10° W 23:52:03 64° N 23:55:08 10° E
Cosmos 1626 Rocket 3.7 23:49:24 23° SSW 23:52:08 73° WNW 23:56:35 10° N
Elektron 1 4.3 23:50:12 10° WNW 23:53:07 39° SW 23:53:44 34° SSW
OPS 6432 4.4 23:50:55 10° NW 23:53:51 52° SW 23:54:59 33° S
SL-16 R/B 4.5 23:50:05 10° ESE 23:54:48 24° NE 23:59:31 10° N
Cosmos 1408 4.1 23:53:09 19° SE 23:54:50 26° E 23:57:57 10° NNE
Cosmos 1898 Rocket 4.2 23:49:43 10° NNW 23:54:52 52° ENE 23:59:29 12° SE
Cosmos 1825 4.3 23:54:28 12° ESE 23:56:26 18° E 23:59:00 10° NE
